YAOGAN-3

Last updated on Tue Oct 15 2024 00:02:24 GMT+0000 (Coordinated Universal Time)

1 32289U 07055A 24288.55050256 .00004859 00000+0 55534-3 0 9993 2 32289 97.8804 312.7667 0001201 92.3055 267.8298 14.86494945914990
UTC large
Height (km)
Speed (km/s)
/
Latitude / Longitude
Inclination (degrees)
Orbital Period (minutes)
Azimuth
Elevation
Range (km)
Doppler Factor

Next 0 passes for location: London (51.5072 / 0.1276)

Sorry there are no passes over London.